sat.trackr.live / text

‹ back to catalog

BEIDOU-3 G4 (C62)

NORAD 56564 · 2023-066A

PAYLOAD ACTIVE UNKNOWN

§ Identity

Operator
Country
PRC
Launch date
2023-05-17
Launch site
XICLF
Launch vehicle
Mass (kg)
RCS (m²)

Purposes: comms, nav

External: N2YO · Heavens-Above · Gunter

§ Orbital elements

Epoch: 2026-05-25T04:24:35.930016Z

Period
1,436.09 min
Inclination
0.5146°
Eccentricity
0.0003833
Mean motion
1.00272246 rev/d
Perigee alt
35,770.3 km
Apogee alt
35,802.6 km
Semi-major
42,164.6 km
B*
0.0000e+0
RAAN
326.0191°
Arg perigee
169.4000°
Mean anomaly
313.5730°
Rev number
1,116

§ Raw data

BEIDOU-3 G4 (C62)1 56564U 23066A   26145.18374919 -.00000284  00000+0  00000+0 0  99962 56564   0.5146 326.0191 0003833 169.4000 313.5730  1.00272246 11168

JSON: /api/v1/satellites/56564 · /tle

For live sub-satellite position, see the globe view (requires WebGL).

§ Visibility from observer

Set your observer location to see the next 7 days of passes ≥ 10°. The values pass through the URL so the page stays shareable.

No JS? Fill the form by hand. The geolocation button needs JavaScript.